User: anonymous   Login
Location: Ar Ranvel
(48.3000°N, 4.8833°W)
Time: 23:12:51
(UTC+00:00)
Language:

SL-8 R/B - Orbit

View from above orbital plane
View from above orbital plane
View from above satellite
View from above satellite

Ground track
Ground track

The orbit data is extracted from the following two-line orbital elements,

1 33066U 08031G   21271.48828967 -.00000060  00000-0  22649-4 0  9999
2 33066  48.4454 352.0153 0008195 249.5436 110.4595 14.69778287712761
Epoch (UTC): 28 September 2021 11:43:08
Eccentricity: 0.0008195
inclination: 48.4454°
perigee height: 656 km
apogee height: 667 km
right ascension of ascending node: 352.0153°
argument of perigee: 249.5436°
revolutions per day: 14.69778287
mean anomaly at epoch: 110.4595°
orbit number at epoch: 71276

The dashed part of the orbit path shows where the satellite is in the earth's shadow,  

DLR